Tracking 22779 objects as of 13-Apr-2021
HD Live streaming from Space Station
objects crossing your sky now

NAVSTAR 64 (USA 206)

Track NAVSTAR 64 (USA 206) now!
NAVSTAR 64 (USA 206) is classified as:


NORAD ID: 35752
Int'l Code: 2009-043A
Perigee: 20,036.2 km
Apogee: 20,346.2 km
Inclination: 54.8 °
Period: 718.1 minutes
Semi major axis: 26562 km
RCS: 6.3 m2 (large)
Launch date: August 17, 2009
Source: United States (US)
Launch site: AIR FORCE EASTERN TEST RANGE (AFETR)
PRN: 5
aabbcc
Your satellite tracking list
Your tracking list is empty




NASA's NSSDC Master Catalog

Two Line Element Set (TLE):
1 35752U 09043A   21102.00244060  .00000018  00000-0  00000-0 0  9999
2 35752  54.7671 102.9421 0058340  49.0912 308.7951  2.00542763 85407
Source of the keplerian elements: AFSPC